{"data":{"norad_id":62038,"epoch":"2026-05-25T01:47:21.113952Z","epoch_age_seconds":82699,"freshness":"FRESH","line1":"1 62038U 24216G   26145.07454993  .00122319  00000+0  12396-2 0  9993","line2":"2 62038  42.9858 163.5181 0022772  92.4693 267.8779 15.63793693 84645","mean_motion":15.63793693,"eccentricity":0.0022772,"inclination_deg":42.9858,"raan_deg":163.5181,"arg_perigee_deg":92.4693,"mean_anomaly_deg":267.8779,"bstar":0.0012396,"rev_number":8464,"period_min":92.083758007585,"perigee_km":361.32817247013,"apogee_km":392.09244906228,"semimajor_km":6754.8473107662,"source":"CELESTRAK","updated_at":"2026-05-25T13:38:19.524709Z"}}